This demonstration page uses our WeatherBlox Daily Observations layout. Learn more.

Left ArrowRight Arrow

Hourly Observations for April 4, 2018

Temp ( °F °C ) Dew Point ( °F °C ) Humidity (%) Winds ( mph kmh ) Pressure ( in mb ) Visibility ( mi km ) Precip ( " mm )
12:53 am 00:53 Clear 58 14.4 44 6.7 60 60 NNW 3 6 29.98 1015 10 16 0.00 0.00
1:53 am 01:53 Clear 57 13.9 44 6.7 62 62 Calm 29.99 1016 10 16 0.00 0.00
2:53 am 02:53 Clear 56 13.3 43 6.1 62 62 NNW 3 6 29.99 1016 10 16 0.00 0.00
3:53 am 03:53 Clear 57 13.9 43 6.1 60 60 N 5 7 29.99 1016 10 16 0.00 0.00
4:53 am 04:53 Mostly Clear 56 13.3 43 6.1 62 62 NW 3 6 29.99 1016 10 16 0.00 0.00
5:53 am 05:53 Clear 55 12.8 44 6.7 67 67 WNW 5 7 29.98 1015 9 14 0.00 0.00
6:53 am 06:53 Sunny 56 13.3 44 6.7 65 65 NNW 3 6 30.00 1016 10 16 0.00 0.00
7:53 am 07:53 Sunny 56 13.3 45 7.2 67 67 NW 3 6 30.02 1017 10 16 0.00 0.00
8:53 am 08:53 Sunny 61 16.1 43 6.1 52 52 Calm 30.03 1017 10 16 0.00 0.00
9:53 am 09:53 Sunny 64 17.8 45 7.2 50 50 Calm 30.03 1017 10 16 0.00 0.00
10:53 am 10:53 Sunny 66 18.9 43 6.1 43 43 Calm 30.03 1017 10 16 0.00 0.00
11:53 am 11:53 Sunny 70 21.1 43 6.1 38 38 Calm 30.03 1017 10 16 0.00 0.00
12:53 pm 12:53 Mostly Sunny 74 23.3 41 5 31 31 Calm 30.02 1017 10 16 0.00 0.00
1:53 pm 13:53 Sunny 73 22.8 37 2.8 27 27 SSW 3 6 30.00 1016 10 16 0.00 0.00
2:53 pm 14:53 Partly Cloudy 75 23.9 35 1.7 23 23 SE 6 9 29.97 1015 10 16 0.00 0.00
3:53 pm 15:53 Partly Cloudy 74 23.3 39 3.9 28 28 SE 6 9 29.96 1014 10 16 0.00 0.00
4:53 pm 16:53 Mostly Sunny 75 23.9 37 2.8 25 25 Calm 29.95 1014 10 16 0.00 0.00
5:53 pm 17:53 Sunny 73 22.8 43 6.1 34 34 Calm 29.95 1014 10 16 0.00 0.00
6:53 pm 18:53 Partly Cloudy 72 22.2 37 2.8 28 28 SSW 6 9 29.95 1014 10 16 0.00 0.00
7:53 pm 19:53 Cloudy 68 20 45 7.2 44 44 Calm 29.96 1015 10 16 0.00 0.00
8:53 pm 20:53 Cloudy 67 19.4 46 7.8 47 47 Calm 29.99 1016 10 16 0.00 0.00
9:53 pm 21:53 Cloudy 65 18.3 49 9.4 56 56 Calm 30.01 1016 10 16 0.00 0.00
10:53 pm 22:53 Clear 64 17.8 47 8.3 54 54 NE 5 7 29.97 1015 10 16 0.00 0.00
11:53 pm 23:53 Clear 62 16.7 46 7.8 56 56 NW 6 9 29.98 1015 10 16 0.00 0.00

Powered by AerisWeather